Time,TemperatureF,DewpointF,PressureIn,WindDirection,WindDirectionDegrees,WindSpeedMPH,WindSpeedGustMPH,Humidity,HourlyPrecipIn,Conditions,Clouds,dailyrainin,SoftwareType,DateUTC
2013-02-15 00:01:00,28.0,16.0,30.15,NNW,332,1.0,-999.0,59,-99.99,,,-99.99,,2013-02-15 07:01:00,
2013-02-15 00:11:00,28.0,16.0,30.15,NNW,332,1.0,-999.0,59,-99.99,,,-99.99,,2013-02-15 07:11:00,
2013-02-15 00:21:00,27.0,15.0,30.15,NNW,332,1.0,-999.0,60,-99.99,,,-99.99,,2013-02-15 07:21:00,
2013-02-15 00:31:00,27.0,15.0,30.15,NNW,332,1.0,-999.0,61,-99.99,,,-99.99,,2013-02-15 07:31:00,
2013-02-15 00:41:00,27.0,15.0,30.15,NNW,332,1.0,-999.0,61,-99.99,,,-99.99,,2013-02-15 07:41:00,
2013-02-15 00:52:00,26.0,16.0,30.16,NNW,332,0.0,-999.0,64,-99.99,,,-99.99,,2013-02-15 07:52:00,
2013-02-15 01:01:00,26.0,16.0,30.17,NNW,332,0.0,-999.0,65,-99.99,,,-99.99,,2013-02-15 08:01:00,
2013-02-15 01:11:00,26.0,16.0,30.17,NNW,332,0.0,-999.0,65,-99.99,,,-99.99,,2013-02-15 08:11:00,
2013-02-15 01:21:00,25.0,15.0,30.18,NNW,332,0.0,-999.0,65,-99.99,,,-99.99,,2013-02-15 08:21:00,
2013-02-15 01:31:00,25.0,15.0,30.18,NNW,332,0.0,-999.0,65,-99.99,,,-99.99,,2013-02-15 08:31:00,
2013-02-15 01:41:00,25.0,15.0,30.18,NNW,332,0.0,-999.0,65,-99.99,,,-99.99,,2013-02-15 08:41:00,
2013-02-15 01:52:00,25.0,15.0,30.17,NNW,332,0.0,-999.0,64,-99.99,,,-99.99,,2013-02-15 08:52:00,
2013-02-15 02:01:00,25.0,15.0,30.17,NNW,332,1.0,-999.0,64,-99.99,,,-99.99,,2013-02-15 09:01:00,
2013-02-15 02:12:00,25.0,15.0,30.17,NNW,332,1.0,-999.0,64,-99.99,,,-99.99,,2013-02-15 09:12:00,
2013-02-15 02:21:00,27.0,13.0,30.16,NNW,332,1.0,-999.0,54,-99.99,,,-99.99,,2013-02-15 09:21:00,
2013-02-15 02:31:00,26.0,13.0,30.17,NNW,332,1.0,-999.0,57,-99.99,,,-99.99,,2013-02-15 09:31:00,
2013-02-15 02:41:00,26.0,13.0,30.17,NNW,332,1.0,-999.0,57,-99.99,,,-99.99,,2013-02-15 09:41:00,
2013-02-15 02:51:00,24.0,15.0,30.19,NNW,332,1.0,-999.0,67,-99.99,,,-99.99,,2013-02-15 09:51:00,
2013-02-15 03:01:00,23.0,14.0,30.19,NNW,332,0.0,-999.0,69,-99.99,,,-99.99,,2013-02-15 10:01:00,
2013-02-15 03:11:00,23.0,14.0,30.19,NNW,332,0.0,-999.0,69,-99.99,,,-99.99,,2013-02-15 10:11:00,
2013-02-15 03:21:00,23.0,14.0,30.19,NNW,332,0.0,-999.0,69,-99.99,,,-99.99,,2013-02-15 10:21:00,
2013-02-15 03:31:00,22.0,14.0,30.18,NNW,332,0.0,-999.0,72,-99.99,,,-99.99,,2013-02-15 10:31:00,
2013-02-15 03:42:00,22.0,14.0,30.18,NNW,332,0.0,-999.0,72,-99.99,,,-99.99,,2013-02-15 10:42:00,
2013-02-15 03:52:00,21.0,14.0,30.20,NNW,332,1.0,-999.0,73,-99.99,,,-99.99,,2013-02-15 10:52:00,
2013-02-15 04:01:00,20.0,12.0,30.21,NNW,332,1.0,-999.0,72,-99.99,,,-99.99,,2013-02-15 11:01:00,
2013-02-15 04:11:00,20.0,12.0,30.21,NNW,332,1.0,-999.0,72,-99.99,,,-99.99,,2013-02-15 11:11:00,
2013-02-15 04:22:00,19.0,12.0,30.21,NNW,332,0.0,-999.0,75,-99.99,,,-99.99,,2013-02-15 11:22:00,
2013-02-15 04:31:00,20.0,13.0,30.21,NNW,332,0.0,-999.0,74,-99.99,,,-99.99,,2013-02-15 11:31:00,
2013-02-15 04:42:00,20.0,13.0,30.21,NNW,332,0.0,-999.0,74,-99.99,,,-99.99,,2013-02-15 11:42:00,
2013-02-15 04:52:00,19.0,12.0,30.22,NNW,332,0.0,-999.0,74,-99.99,,,-99.99,,2013-02-15 11:52:00,
2013-02-15 05:01:00,19.0,12.0,30.23,NNW,332,0.0,-999.0,74,-99.99,,,-99.99,,2013-02-15 12:01:00,
2013-02-15 05:11:00,19.0,12.0,30.23,NNW,332,0.0,-999.0,74,-99.99,,,-99.99,,2013-02-15 12:11:00,
2013-02-15 05:21:00,19.0,12.0,30.23,NNW,332,0.0,-999.0,75,-99.99,,,-99.99,,2013-02-15 12:21:00,
2013-02-15 05:31:00,18.0,12.0,30.24,NNW,332,0.0,-999.0,76,-99.99,,,-99.99,,2013-02-15 12:31:00,
2013-02-15 05:42:00,18.0,12.0,30.24,NNW,332,0.0,-999.0,76,-99.99,,,-99.99,,2013-02-15 12:42:00,
2013-02-15 05:52:00,18.0,12.0,30.28,NNW,332,0.0,-999.0,76,-99.99,,,-99.99,,2013-02-15 12:52:00,
2013-02-15 06:02:00,18.0,12.0,30.28,NNW,332,0.0,-999.0,76,-99.99,,,-99.99,,2013-02-15 13:02:00,
2013-02-15 06:11:00,18.0,12.0,30.28,NNW,332,0.0,-999.0,76,-99.99,,,-99.99,,2013-02-15 13:11:00,
2013-02-15 06:21:00,18.0,12.0,30.29,NNW,332,0.0,-999.0,77,-99.99,,,-99.99,,2013-02-15 13:21:00,
2013-02-15 06:31:00,18.0,12.0,30.29,NNW,332,1.0,-999.0,78,-99.99,,,-99.99,,2013-02-15 13:31:00,
2013-02-15 06:41:00,18.0,12.0,30.29,NNW,332,1.0,-999.0,78,-99.99,,,-99.99,,2013-02-15 13:41:00,
2013-02-15 06:51:00,18.0,12.0,30.31,NNW,332,0.0,-999.0,77,-99.99,,,-99.99,,2013-02-15 13:51:00,
2013-02-15 07:01:00,19.0,13.0,30.31,NNW,332,0.0,-999.0,77,-99.99,,,-99.99,,2013-02-15 14:01:00,
2013-02-15 07:11:00,19.0,13.0,30.31,NNW,332,0.0,-999.0,77,-99.99,,,-99.99,,2013-02-15 14:11:00,
2013-02-15 07:21:00,19.0,12.0,30.30,NNW,332,0.0,-999.0,75,-99.99,,,-99.99,,2013-02-15 14:21:00,
2013-02-15 07:32:00,19.0,12.0,30.31,NNW,332,1.0,-999.0,75,-99.99,,,-99.99,,2013-02-15 14:32:00,
2013-02-15 07:41:00,19.0,12.0,30.31,NNW,332,1.0,-999.0,75,-99.99,,,-99.99,,2013-02-15 14:41:00,
2013-02-15 07:52:00,21.0,14.0,30.31,NNW,332,0.0,-999.0,74,-99.99,,,-99.99,,2013-02-15 14:52:00,
2013-02-15 08:01:00,22.0,14.0,30.30,NNW,332,0.0,-999.0,71,-99.99,,,-99.99,,2013-02-15 15:01:00,
2013-02-15 08:11:00,22.0,14.0,30.30,NNW,332,0.0,-999.0,71,-99.99,,,-99.99,,2013-02-15 15:11:00,
2013-02-15 08:21:00,22.0,14.0,30.30,NNW,332,2.0,-999.0,72,-99.99,,,-99.99,,2013-02-15 15:21:00,
2013-02-15 08:32:00,24.0,17.0,30.29,West,272,3.0,-999.0,73,-99.99,,,-99.99,,2013-02-15 15:32:00,
2013-02-15 08:41:00,24.0,17.0,30.29,West,272,3.0,-999.0,73,-99.99,,,-99.99,,2013-02-15 15:41:00,
2013-02-15 08:51:00,27.0,19.0,30.28,West,265,5.0,-999.0,70,-99.99,,,-99.99,,2013-02-15 15:51:00,
2013-02-15 09:01:00,30.0,20.0,30.28,West,264,2.0,-999.0,65,-99.99,,,-99.99,,2013-02-15 16:01:00,
2013-02-15 09:11:00,30.0,20.0,30.28,West,264,2.0,-999.0,65,-99.99,,,-99.99,,2013-02-15 16:11:00,
2013-02-15 09:22:00,30.0,19.0,30.27,West,264,3.0,-999.0,63,-99.99,,,-99.99,,2013-02-15 16:22:00,
2013-02-15 09:31:00,33.0,19.0,30.27,West,264,3.0,-999.0,56,-99.99,,,-99.99,,2013-02-15 16:31:00,
2013-02-15 09:42:00,33.0,19.0,30.27,West,264,3.0,-999.0,56,-99.99,,,-99.99,,2013-02-15 16:42:00,
2013-02-15 09:51:00,35.0,19.0,30.28,WSW,243,8.0,-999.0,51,-99.99,,,-99.99,,2013-02-15 16:51:00,
2013-02-15 10:01:00,36.0,18.0,30.27,WSW,242,8.0,-999.0,47,-99.99,,,-99.99,,2013-02-15 17:01:00,
2013-02-15 10:11:00,38.0,15.0,30.26,WSW,253,7.0,-999.0,39,-99.99,,,-99.99,,2013-02-15 17:11:00,
2013-02-15 10:21:00,38.0,15.0,30.26,WSW,253,7.0,-999.0,39,-99.99,,,-99.99,,2013-02-15 17:21:00,
2013-02-15 10:32:00,41.0,13.0,30.25,WNW,287,6.0,-999.0,31,-99.99,,,-99.99,,2013-02-15 17:32:00,
2013-02-15 10:41:00,41.0,13.0,30.25,WNW,287,6.0,-999.0,31,-99.99,,,-99.99,,2013-02-15 17:41:00,
2013-02-15 10:52:00,42.0,12.0,30.27,WNW,282,7.0,-999.0,29,-99.99,,,-99.99,,2013-02-15 17:52:00,
2013-02-15 11:01:00,42.0,13.0,30.27,WNW,290,9.0,-999.0,30,-99.99,,,-99.99,,2013-02-15 18:01:00,
2013-02-15 11:11:00,42.0,13.0,30.27,WNW,290,9.0,-999.0,30,-99.99,,,-99.99,,2013-02-15 18:11:00,
2013-02-15 11:21:00,42.0,12.0,30.26,West,276,9.0,-999.0,29,-99.99,,,-99.99,,2013-02-15 18:21:00,
2013-02-15 11:31:00,43.0,12.0,30.26,WNW,291,9.0,-999.0,28,-99.99,,,-99.99,,2013-02-15 18:31:00,
2013-02-15 11:41:00,43.0,12.0,30.26,WNW,291,9.0,-999.0,28,-99.99,,,-99.99,,2013-02-15 18:41:00,
2013-02-15 11:52:00,43.0,10.0,30.26,NW,311,9.0,-999.0,26,-99.99,,,-99.99,,2013-02-15 18:52:00,
2013-02-15 12:01:00,44.0,13.0,30.26,West,277,10.0,-999.0,28,-99.99,,,-99.99,,2013-02-15 19:01:00,
2013-02-15 12:11:00,44.0,13.0,30.26,West,277,10.0,-999.0,28,-99.99,,,-99.99,,2013-02-15 19:11:00,
2013-02-15 12:21:00,44.0,12.0,30.25,NW,310,10.0,-999.0,27,-99.99,,,-99.99,,2013-02-15 19:21:00,
2013-02-15 12:32:00,44.0,12.0,30.25,NW,310,10.0,-999.0,27,-99.99,,,-99.99,,2013-02-15 19:32:00,
2013-02-15 12:41:00,44.0,12.0,30.25,NW,310,10.0,-999.0,27,-99.99,,,-99.99,,2013-02-15 19:41:00,
2013-02-15 12:51:00,45.0,13.0,30.26,WNW,290,11.0,-999.0,27,-99.99,,,-99.99,,2013-02-15 19:51:00,
2013-02-15 13:01:00,44.0,12.0,30.25,NW,306,13.0,-999.0,27,-99.99,,,-99.99,,2013-02-15 20:01:00,
2013-02-15 13:11:00,44.0,12.0,30.25,NW,306,13.0,-999.0,27,-99.99,,,-99.99,,2013-02-15 20:11:00,
2013-02-15 13:21:00,45.0,11.0,30.25,NNW,342,15.0,-999.0,25,-99.99,,,-99.99,,2013-02-15 20:21:00,
2013-02-15 13:32:00,45.0,11.0,30.25,NW,323,13.0,-999.0,25,-99.99,,,-99.99,,2013-02-15 20:32:00,
2013-02-15 13:42:00,45.0,11.0,30.25,NW,323,13.0,-999.0,25,-99.99,,,-99.99,,2013-02-15 20:42:00,
2013-02-15 13:52:00,45.0,8.0,30.22,NNW,343,16.0,-999.0,22,-99.99,,,-99.99,,2013-02-15 20:52:00,
2013-02-15 14:01:00,45.0,11.0,30.22,NNW,340,18.0,-999.0,25,-99.99,,,-99.99,,2013-02-15 21:01:00,
2013-02-15 14:11:00,45.0,11.0,30.22,NNW,340,18.0,-999.0,25,-99.99,,,-99.99,,2013-02-15 21:11:00,
2013-02-15 14:21:00,46.0,10.0,30.22,NW,322,12.0,-999.0,23,-99.99,,,-99.99,,2013-02-15 21:21:00,
2013-02-15 14:31:00,46.0,11.0,30.22,North,354,13.0,-999.0,24,-99.99,,,-99.99,,2013-02-15 21:31:00,
2013-02-15 14:42:00,46.0,11.0,30.22,North,354,13.0,-999.0,24,-99.99,,,-99.99,,2013-02-15 21:42:00,
2013-02-15 14:51:00,45.0,8.0,30.24,NNW,334,17.0,-999.0,22,-99.99,,,-99.99,,2013-02-15 21:51:00,
2013-02-15 15:02:00,46.0,10.0,30.24,NNW,335,16.0,-999.0,23,-99.99,,,-99.99,,2013-02-15 22:02:00,
2013-02-15 15:11:00,46.0,10.0,30.24,NNW,335,16.0,-999.0,23,-99.99,,,-99.99,,2013-02-15 22:11:00,
2013-02-15 15:21:00,46.0,9.0,30.24,NW,323,13.0,-999.0,22,-99.99,,,-99.99,,2013-02-15 22:21:00,
2013-02-15 15:31:00,46.0,10.0,30.24,NW,322,14.0,-999.0,23,-99.99,,,-99.99,,2013-02-15 22:31:00,
2013-02-15 15:41:00,46.0,10.0,30.24,NW,322,14.0,-999.0,23,-99.99,,,-99.99,,2013-02-15 22:41:00,
2013-02-15 15:51:00,46.0,10.0,30.25,NNW,331,12.0,-999.0,23,-99.99,,,-99.99,,2013-02-15 22:51:00,
2013-02-15 16:02:00,46.0,8.0,30.25,NNW,334,13.0,-999.0,21,-99.99,,,-99.99,,2013-02-15 23:02:00,
2013-02-15 16:11:00,46.0,8.0,30.25,NNW,334,13.0,-999.0,21,-99.99,,,-99.99,,2013-02-15 23:11:00,
2013-02-15 16:21:00,45.0,7.0,30.26,NW,319,13.0,-999.0,21,-99.99,,,-99.99,,2013-02-15 23:21:00,
2013-02-15 16:31:00,46.0,9.0,30.25,NW,307,10.0,-999.0,22,-99.99,,,-99.99,,2013-02-15 23:31:00,
2013-02-15 16:41:00,46.0,9.0,30.25,NW,307,10.0,-999.0,22,-99.99,,,-99.99,,2013-02-15 23:41:00,
2013-02-15 16:52:00,45.0,7.0,30.27,NW,325,9.0,-999.0,21,-99.99,,,-99.99,,2013-02-15 23:52:00,
2013-02-15 17:02:00,46.0,8.0,30.27,NW,323,6.0,-999.0,21,-99.99,,,-99.99,,2013-02-16 00:02:00,
2013-02-15 17:11:00,46.0,8.0,30.27,NW,323,6.0,-999.0,21,-99.99,,,-99.99,,2013-02-16 00:11:00,
2013-02-15 17:21:00,45.0,10.0,30.28,WNW,298,6.0,-999.0,24,-99.99,,,-99.99,,2013-02-16 00:21:00,
2013-02-15 17:31:00,44.0,10.0,30.28,NW,313,8.0,-999.0,24,-99.99,,,-99.99,,2013-02-16 00:31:00,
2013-02-15 17:41:00,44.0,10.0,30.28,NW,313,8.0,-999.0,24,-99.99,,,-99.99,,2013-02-16 00:41:00,
2013-02-15 17:51:00,43.0,10.0,30.29,NW,309,7.0,-999.0,26,-99.99,,,-99.99,,2013-02-16 00:51:00,
2013-02-15 18:02:00,41.0,10.0,30.31,WNW,293,4.0,-999.0,27,-99.99,,,-99.99,,2013-02-16 01:02:00,
2013-02-15 18:11:00,41.0,10.0,30.31,WNW,293,4.0,-999.0,27,-99.99,,,-99.99,,2013-02-16 01:11:00,
2013-02-15 18:21:00,40.0,9.0,30.32,WNW,291,3.0,-999.0,27,-99.99,,,-99.99,,2013-02-16 01:21:00,
2013-02-15 18:31:00,39.0,9.0,30.33,WNW,290,4.0,-999.0,29,-99.99,,,-99.99,,2013-02-16 01:31:00,
2013-02-15 18:41:00,39.0,9.0,30.33,WNW,290,4.0,-999.0,29,-99.99,,,-99.99,,2013-02-16 01:41:00,
2013-02-15 18:51:00,38.0,9.0,30.34,WNW,290,3.0,-999.0,30,-99.99,,,-99.99,,2013-02-16 01:51:00,
2013-02-15 19:01:00,38.0,11.0,30.34,WNW,290,1.0,-999.0,32,-99.99,,,-99.99,,2013-02-16 02:01:00,
2013-02-15 19:11:00,38.0,11.0,30.34,WNW,290,1.0,-999.0,32,-99.99,,,-99.99,,2013-02-16 02:11:00,
2013-02-15 19:21:00,36.0,9.0,30.34,WNW,290,0.0,-999.0,32,-99.99,,,-99.99,,2013-02-16 02:21:00,
2013-02-15 19:31:00,36.0,9.0,30.34,WNW,290,0.0,-999.0,32,-99.99,,,-99.99,,2013-02-16 02:31:00,
2013-02-15 19:42:00,36.0,9.0,30.34,WNW,290,0.0,-999.0,32,-99.99,,,-99.99,,2013-02-16 02:42:00,
2013-02-15 19:52:00,37.0,10.0,30.33,WNW,290,0.0,-999.0,32,-99.99,,,-99.99,,2013-02-16 02:52:00,
2013-02-15 20:01:00,36.0,10.0,30.35,WNW,290,1.0,-999.0,34,-99.99,,,-99.99,,2013-02-16 03:01:00,
2013-02-15 20:11:00,36.0,10.0,30.35,WNW,290,1.0,-999.0,34,-99.99,,,-99.99,,2013-02-16 03:11:00,
2013-02-15 20:21:00,35.0,13.0,30.35,WNW,290,1.0,-999.0,39,-99.99,,,-99.99,,2013-02-16 03:21:00,
2013-02-15 20:31:00,33.0,12.0,30.35,WNW,290,0.0,-999.0,41,-99.99,,,-99.99,,2013-02-16 03:31:00,
2013-02-15 20:41:00,33.0,12.0,30.35,WNW,290,0.0,-999.0,41,-99.99,,,-99.99,,2013-02-16 03:41:00,
2013-02-15 20:52:00,34.0,12.0,30.31,WNW,290,2.0,-999.0,39,-99.99,,,-99.99,,2013-02-16 03:52:00,
2013-02-15 21:01:00,35.0,11.0,30.31,WNW,290,4.0,-999.0,37,-99.99,,,-99.99,,2013-02-16 04:01:00,
2013-02-15 21:11:00,35.0,11.0,30.31,WNW,290,4.0,-999.0,37,-99.99,,,-99.99,,2013-02-16 04:11:00,
2013-02-15 21:21:00,33.0,13.0,30.31,WNW,290,1.0,-999.0,44,-99.99,,,-99.99,,2013-02-16 04:21:00,
2013-02-15 21:31:00,31.0,12.0,30.32,WNW,290,0.0,-999.0,45,-99.99,,,-99.99,,2013-02-16 04:31:00,
2013-02-15 21:41:00,31.0,12.0,30.32,WNW,290,0.0,-999.0,45,-99.99,,,-99.99,,2013-02-16 04:41:00,
2013-02-15 21:51:00,31.0,13.0,30.28,WNW,290,0.0,-999.0,47,-99.99,,,-99.99,,2013-02-16 04:51:00,
2013-02-15 22:01:00,30.0,12.0,30.30,WNW,290,0.0,-999.0,47,-99.99,,,-99.99,,2013-02-16 05:01:00,
2013-02-15 22:11:00,30.0,12.0,30.30,WNW,290,0.0,-999.0,47,-99.99,,,-99.99,,2013-02-16 05:11:00,
2013-02-15 22:21:00,30.0,12.0,30.30,WNW,290,0.0,-999.0,47,-99.99,,,-99.99,,2013-02-16 05:21:00,
2013-02-15 22:31:00,30.0,13.0,30.31,WNW,290,0.0,-999.0,49,-99.99,,,-99.99,,2013-02-16 05:31:00,
2013-02-15 22:42:00,30.0,13.0,30.31,WNW,290,0.0,-999.0,49,-99.99,,,-99.99,,2013-02-16 05:42:00,
2013-02-15 22:52:00,28.0,14.0,30.29,WNW,290,2.0,-999.0,55,-99.99,,,-99.99,,2013-02-16 05:52:00,
2013-02-15 23:01:00,26.0,14.0,30.31,WNW,290,0.0,-999.0,59,-99.99,,,-99.99,,2013-02-16 06:01:00,
2013-02-15 23:11:00,26.0,14.0,30.31,WNW,290,0.0,-999.0,59,-99.99,,,-99.99,,2013-02-16 06:11:00,
2013-02-15 23:21:00,25.0,14.0,30.31,WNW,290,1.0,-999.0,63,-99.99,,,-99.99,,2013-02-16 06:21:00,
2013-02-15 23:32:00,24.0,14.0,30.32,WNW,290,1.0,-999.0,65,-99.99,,,-99.99,,2013-02-16 06:32:00,
2013-02-15 23:41:00,24.0,14.0,30.32,WNW,290,1.0,-999.0,65,-99.99,,,-99.99,,2013-02-16 06:41:00,
2013-02-15 23:51:00,24.0,14.0,30.31,WNW,290,0.0,-999.0,66,-99.99,,,-99.99,,2013-02-16 06:51:00,